Weather observations for the past three days for
Windsor Locks, Bradley International Airport
Imperial (Metric)
Date Time (edt) Wind (mph) Vis. (mi.) Weather Sky Cond. Temperature (ºF) Relative Humidity Wind Chill (°F) Heat Index (°F) Pressure Precipitation (in)
Air Dwpt 6 hour altimeter (in) sea level (mb) 1 hr 3 hr 6 hr
Max. Min.
22 23:51 N 6 10.00 Overcast SCT007 OVC011 71.1 66 84% 29.97 1014.8
22 22:51 N 7 10.00 Overcast BKN005 OVC009 72 66.9 84% 29.97 1014.8
22 21:51 N 7 10.00 Overcast SCT007 BKN011 OVC014 72 68 87% 29.98 1015.0
22 20:51 N 3 10.00 Overcast FEW010 BKN016 OVC050 75 69.1 82% 75 29.97 1014.6
22 19:51 SE 3 10.00 Mostly Cloudy BKN015 BKN190 BKN240 75 69.1 88 72 82% 75 29.98 1015.1 0.34
22 18:51 E 7 10.00 Mostly Cloudy BKN013 BKN110 BKN190 75.9 68 77% 77 29.97 1014.8
22 17:51 E 3 10.00 Mostly Cloudy SCT006 SCT110 BKN190 BKN240 75 69.1 82% 75 29.97 1014.7
22 16:51 SE 7 10.00 Mostly Cloudy FEW002 SCT006 BKN070 BKN170 73.9 69.1 85% 29.99 1015.4 0.19 0.34
22 15:51 Vrbl 5 G 22 1.00 Thunderstorm Heavy Rain BKN027CB BKN040 OVC060 72 66.9 84% 29.95 1014.0 0.15
22 14:51 SE 7 10.00 Overcast FEW025 SCT100 OVC200 86 72 63% 92 29.94 1013.6
22 13:51 SE 5 10.00 Mostly Cloudy FEW025 BKN200 86 73 87.1 73.9 65% 93 29.96 1014.5
22 12:51 E 6 10.00 Mostly Cloudy FEW019 BKN140 BKN250 84.9 73 68% 92 29.98 1015.2
22 11:51 Vrbl 5 10.00 Mostly Cloudy BKN013 BKN150 BKN250 81 72 74% 85 30.01 1016.1
22 10:51 Calm 10.00 Overcast SCT009 OVC012 78.1 71.1 79% 80 30.02 1016.5
22 09:51 S 6 10.00 Overcast BKN008 OVC011 75.9 71.1 85% 76 30.04 1017.0
22 08:51 S 5 7.00 Overcast OVC006 75 71.1 88% 75 30.04 1017.2
22 07:51 SW 5 7.00 Overcast OVC006 73.9 70 73.9 73.9 88% 30.05 1017.6
22 06:51 S 5 7.00 Overcast OVC005 73.9 70 88% 30.05 1017.6
22 05:51 SW 5 8.00 Overcast OVC006 73.9 70 88% 30.04 1017.2
22 04:51 S 5 10.00 Overcast OVC006 73.9 70 88% 30.05 1017.5
22 03:51 S 6 10.00 Overcast OVC007 73.9 70 88% 30.05 1017.5
22 02:51 Calm 10.00 Overcast OVC005 73.9 70 88% 30.07 1018.2
22 01:51 Calm 10.00 Overcast OVC006 73.9 71.1 75 73 91% 30.1 1019.1
22 00:51 Calm 10.00 Overcast FEW009 OVC015 75 70 84% 75 30.11 1019.4
21 23:51 Calm 10.00 Overcast OVC012 73.9 71.1 91% 30.11 1019.4
21 22:51 N 5 10.00 Partly Cloudy FEW014 SCT120 73 70 90% 30.11 1019.3
21 21:51 N 3 9.00 Mostly Cloudy FEW009 BKN085 73 70 90% 30.13 1020.1
21 20:51 SW 3 10.00 Mostly Cloudy FEW006 SCT080 BKN100 BKN130 73.9 70 88% 30.12 1019.9
21 19:51 S 5 10.00 Overcast FEW006 BKN075 BKN120 OVC160 75 70 95 75 84% 75 30.14 1020.4 0.55
21 18:51 NE 5 10.00 Overcast BKN005 BKN040 BKN120 OVC160 75 71.1 88% 75 30.11 1019.3 0.01
21 17:51 SE 8 9.00 Thunderstorm Light Rain SCT007 BKN030CB OVC060 75.9 72 88% 76 30.13 1020.0 0.21
21 16:51 S 15 10.00 Thunderstorm Light Rain SCT038CB BKN050 OVC080 78.1 73 85% 81 30.08 1018.6 0.26 0.33
21 15:51 N 6 10.00 Mostly Cloudy FEW020CB BKN065 BKN160 88 72 59% 95 30.08 1018.4 0.07
21 14:51 NE 7 10.00 Mostly Cloudy BKN050 BKN100 BKN200 93 69.1 46% 98 30.09 1018.7
21 13:51 Vrbl 7 10.00 Partly Cloudy FEW050 SCT100 SCT200 93 70 95 77 47% 99 30.11 1019.5
21 12:51 NE 10 10.00 A Few Clouds FEW045 FEW100 FEW200 93 70 47% 99 30.14 1020.3
21 11:51 N 12 G 17 10.00 A Few Clouds FEW040 FEW100 FEW200 91.9 70 49% 98 30.16 1021.2
21 10:51 Vrbl 5 10.00 A Few Clouds FEW035 FEW200 89.1 73 59% 97 30.17 1021.5
21 09:51 N 7 10.00 A Few Clouds FEW250 86 73 65% 93 30.17 1021.6
21 08:51 Calm 10.00 Mostly Cloudy BKN250 82 71.1 69% 86 30.18 1021.9
21 07:51 NE 3 10.00 Mostly Cloudy FEW005 BKN250 77 70 77 71.1 79% 79 30.18 1022.0
21 06:51 NE 5 9.00 Mostly Cloudy BKN250 73.9 69.1 85% 30.18 1021.9
21 05:51 Calm 10.00 Partly Cloudy FEW200 SCT250 72 68 87% 30.18 1022.0
21 04:51 N 3 10.00 A Few Clouds FEW200 72 68 87% 30.18 1021.8
21 03:51 Calm 10.00 A Few Clouds FEW200 72 69.1 91% 30.18 1021.6
21 02:51 N 3 10.00 Partly Cloudy SCT200 73.9 69.1 85% 30.18 1021.7
21 01:51 Calm 10.00 Partly Cloudy FEW180 SCT210 75 70 91 73.9 84% 75 30.19 1022.2
21 00:51 Calm 10.00 Mostly Cloudy FEW075 BKN180 BKN210 79 66.9 67% 81 30.19 1022.2
20 23:51 Calm 10.00 Mostly Cloudy FEW075 FEW100 BKN200 78.1 68 71% 80 30.21 1022.7
20 22:51 SW 7 10.00 Mostly Cloudy FEW065 SCT080 BKN230 78.1 68 71% 80 30.23 1023.6
20 21:51 E 5 10.00 Mostly Cloudy SCT055 SCT100 BKN250 77 69.1 77% 79 30.24 1023.8
20 20:51 N 15 G 29 10.00 Mostly Cloudy SCT050 BKN060 BKN075 BKN250 86 68 55% 89 30.23 1023.4
20 19:51 SW 8 10.00 A Few Clouds FEW045 FEW095 FEW250 91 70 98.1 91 50% 97 30.17 1021.3
20 18:51 SW 10 10.00 A Few Clouds FEW045 FEW075 FEW250 93.9 70 46% 100 30.16 1021.2
20 17:51 SW 12 10.00 Partly Cloudy FEW050 FEW110 SCT250 96.1 71.1 44% 104 30.16 1021.0
20 16:51 S 12 10.00 Partly Cloudy FEW055 SCT200 SCT250 97 71.1 43% 105 30.18 1021.7
20 15:51 SW 13 10.00 Partly Cloudy FEW050 SCT200 SCT250 97 71.1 43% 105 30.18 1021.8
20 14:51 SW 13 10.00 Mostly Cloudy SCT050 BKN200 BKN250 97 72 45% 106 30.2 1022.5
20 13:51 S 10 10.00 Mostly Cloudy FEW045 FEW060TCU SCT200 BKN250 96.1 73.9 96.1 78.1 49% 107 30.23 1023.3
20 12:51 SW 10 10.00 Partly Cloudy FEW060TCU FEW200 SCT250 95 73 49% 105 30.25 1024.0
20 11:51 S 8 10.00 Mostly Cloudy SCT060 SCT200 BKN250 91 72 54% 99 30.27 1024.9
20 10:51 S 8 10.00 Mostly Cloudy FEW200 BKN250 89.1 71.1 55% 95 30.27 1024.8
20 09:51 S 6 10.00 Mostly Cloudy FEW200 BKN250 84 69.1 61% 88 30.28 1025.2
20 08:51 S 5 10.00 Mostly Cloudy FEW200 BKN250 80.1 66 62% 82 30.28 1025.4
20 07:51 S 7 10.00 Mostly Cloudy FEW200 BKN250 78.1 64.9 78.1 72 64% 80 30.29 1025.5
20 06:51 S 6 10.00 Partly Cloudy FEW220 SCT250 73.9 64 71% 30.28 1025.3
20 05:51 S 6 10.00 Mostly Cloudy FEW220 BKN250 73 62.1 69% 30.28 1025.1
20 04:51 S 7 10.00 Mostly Cloudy FEW220 BKN250 72 61 68% 30.27 1024.9
20 03:51 S 8 10.00 Partly Cloudy SCT250 73 60.1 64% 30.27 1024.7
20 02:51 S 9 10.00 A Few Clouds FEW200 FEW250 73.9 60.1 62% 30.27 1024.6
20 01:51 S 9 10.00 A Few Clouds FEW200 FEW250 75 60.1 86 75 60% 77 30.27 1024.9
20 00:51 S 7 10.00 A Few Clouds FEW180 FEW250 75.9 62.1 62% 78 30.28 1025.3
Date Time (edt) Wind (mph) Vis. (mi.) Weather Sky Cond. Air Dwpt Max. Min. Relative Humidity Wind Chill (°F) Heat Index (°F) altimeter (in) sea level (mb) 1 hr 3 hr 6 hr
6 hour
Temperature (ºF) Pressure Precipitation (in)